Location: Newark
(13.4500°N, 15.3000°W)
Time: 15:50:01
(UTC+00:00)

Envisat - Visible Passes

Search period start: 26 September 2020 00:00
Search period end: 06 October 2020 00:00
Orbit: 764 x 766 km, 98.1° (Epoch: 26 September)

Date Brightness Start Highest point End Pass type
(mag) Time Alt. Az. Time Alt. Az. Time Alt. Az.
26 Sep 4.6 06:22:23 10° NNE 06:27:08 41° E 06:31:52 10° S visible
27 Sep 6.1 05:47:34 10° ENE 05:50:20 15° E 05:53:04 10° SE visible
28 Sep 5.9 19:27:09 10° SSW 19:30:55 21° W 19:34:41 10° NW visible
29 Sep 5.2 06:11:22 10° NE 06:15:47 30° E 06:20:10 10° SSE visible
30 Sep 6.6 05:38:12 10° E 05:38:57 10° E 05:39:44 10° ESE visible
01 Oct 5.4 19:15:14 10° SSW 19:19:33 28° W 19:23:52 10° NW visible
02 Oct 5.7 06:00:31 10° NE 06:04:25 22° E 06:08:18 10° SSE visible
03 Oct 6.3 19:42:30 10° SW 19:45:00 14° W 19:47:29 10° WNW visible
04 Oct 4.4 06:25:00 10° NNE 06:29:50 45° E 06:34:40 10° S visible
04 Oct 4.8 19:03:31 10° SSW 19:08:11 38° W 19:12:53 10° NNW visible
05 Oct 6.1 05:49:54 10° ENE 05:53:03 16° E 05:56:10 10° SE visible
